Погода в Инфанте

Филиппины     14°44′41″N   121°38′53″E
темп.,
°C
ветер,
м/с
пор.,
м/с
влажн.,
%
обл.,
%
осадки,
мм/ч
давл.,
гПа
погр.,
м
11 мая, вт
вт1123:00+28ссв448080 0.6 1011368
02:00+28св3482100 5.3 1009178
05:00+28св338096 6.4 1010215
08:00+28св348197 10.4 1011211
11:00+28св447899 1.9 1011591
14:00+29ссв447571 2.1 1009672
17:00+29ссв347497 0.0 1008783
20:00+28св458129 0.0 1010487
12 мая, ср
ср1223:00+27св458361 1.9 1011260
02:00+27св348419 5.4 1009171
05:00+28всв44795 3.9 1010414
08:00+28всв34795 5.6 1011589
11:00+29в23745 0.5 1011651
14:00+30с23675 0.6 1008788
17:00+30св44725 0.0 1008741
20:00+28св45815 0.1 1010466
13 мая, чт
чт1323:00+27всв45841 0.9 1011292
02:00+28всв44785 5.5 1009356
05:00+28всв45816 4.3 1009431
08:00+28в56772 5.9 1010792
11:00+30в34690 0.2 1010874
14:00+30св34695 0.6 1008841
17:00+30св66735 0.1 1008834
20:00+28св56772 0.3 1009602
14 мая, пт
пт1423:00+28ссв46786 0.0 1010525
02:00+27св56838 1.3 1008461
05:00+27св56821 2.6 1009456
08:00+28св55782 4.2 1010655
11:00+28всв45768 1.3 1009700
14:00+29св56725 1.8 1008828
17:00+29ссв77766 0.1 1007890
20:00+28св56805 0.1 1009695
15 мая, сб
сб1523:00+28св57842 0.5 1010430
02:00+27всв57835 3.4 1008463
05:00+28всв57826 3.5 1009511
08:00+28всв67782 6.4 1010828
11:00+29всв67751 2.2 1010823
14:00+30всв57734 3.8 1008729
17:00+29св67755 0.2 1008924
20:00+28св57811 0.4 1009677